User: anonymous   Login
Location: Buttermere
(51.3333°N, 1.5167°W)
Time: 02:07:18
(UTC+00:00)
Language:

Cosmos 2251 Rocket - Orbit

View from above orbital plane
View from above orbital plane
View from above satellite
View from above satellite

Ground track
Ground track

The orbit data is extracted from the following two-line orbital elements,

1 22676U 93036B   20335.51083430 +.00000066 +00000-0 +32890-4 0  9999
2 22676 074.0444 033.0497 0017550 112.3459 247.9555 14.34019785436009
Epoch (UTC): 30 November 2020 12:15:36
Eccentricity: 0.0017550
inclination: 74.0444°
perigee height: 766 km
apogee height: 791 km
right ascension of ascending node: 33.0497°
argument of perigee: 112.3459°
revolutions per day: 14.34019785
mean anomaly at epoch: 247.9555°
orbit number at epoch: 43600

The dashed part of the orbit path shows where the satellite is in the earth's shadow,  

DLR